Location: Isola Pescaroli
(45.0500°N, 10.1667°E)
Time: 02:06:46
(UTC+00:00)

SL-4 R/B - Pass Details

Date: 17 June 2021
Orbit: 428 x 662 km, 51.6° (Epoch: 29 July)

Event Time Altitude Azimuth Distance (km) Brightness Sun altitude
Exits shadow 22:22:08 28° 89° (E) 961 3.1 -20.3°
Drops below altitude 10° 22:24:11 10° 70° (ENE) 1,676 4.5 -20.4°
Sets 22:26:20 0° 64° (ENE) 2,522 5.6 -20.4°
